Lexington Weather

Lexington, Massachusetts, USA

49°F
12/8/2022 2:38pm 
  • Lexington Conditions: Clear
  • Temperature: 48.7°F / 9.3°CColder 1.5°F than last hour.
  • Dew Point: 35.1°FDecreased 0.9°Fsince last hour.
  • Relative Humidity: 59%Increased 1.0% since last hour.
  • Wind: Wind from NNE NNE 3 mph, 10-min avg: 4 mph, gust: 10 mph
  • Barometer: 30.07 in Steady
  • Visibility: 10 miles
  • Rain Today: 0.00 in
  •   

Warning: Undefined variable $rc in /homepages/6/d276339138/htdocs/weather/20190804/ssi/nwsProduct.php on line 323

Warning: Undefined variable $rc in /homepages/6/d276339138/htdocs/weather/20190804/ssi/nwsProduct.php on line 325

Warning: Undefined variable $rc in /homepages/6/d276339138/htdocs/weather/20190804/ssi/nwsProduct.php on line 323

Warning: Undefined variable $rc in /homepages/6/d276339138/htdocs/weather/20190804/ssi/nwsProduct.php on line 325

Warning: Undefined variable $rc in /homepages/6/d276339138/htdocs/weather/20190804/ssi/nwsProduct.php on line 323

Warning: Undefined variable $rc in /homepages/6/d276339138/htdocs/weather/20190804/ssi/nwsProduct.php on line 325

Warning: Undefined variable $rc in /homepages/6/d276339138/htdocs/weather/20190804/ssi/nwsProduct.php on line 323

Warning: Undefined variable $rc in /homepages/6/d276339138/htdocs/weather/20190804/ssi/nwsProduct.php on line 325

Warning: Undefined variable $rc in /homepages/6/d276339138/htdocs/weather/20190804/ssi/nwsProduct.php on line 323

Warning: Undefined variable $rc in /homepages/6/d276339138/htdocs/weather/20190804/ssi/nwsProduct.php on line 325

Warning: Undefined variable $rc in /homepages/6/d276339138/htdocs/weather/20190804/ssi/nwsProduct.php on line 323

Warning: Undefined variable $rc in /homepages/6/d276339138/htdocs/weather/20190804/ssi/nwsProduct.php on line 325

Warning: Undefined variable $rc in /homepages/6/d276339138/htdocs/weather/20190804/ssi/nwsProduct.php on line 323

Warning: Undefined variable $rc in /homepages/6/d276339138/htdocs/weather/20190804/ssi/nwsProduct.php on line 325

Regional Weather Roundup
for Boston, MA

        
000
ASUS41 KBOX 062310
RWRBOX

REGIONAL WEATHER ROUNDUP
NATIONAL WEATHER SERVICE BOSTON/NORTON MA
600 PM EST TUE DEC 06 2022

NOTE:  "FAIR" INDICATES FEW OR NO CLOUDS BELOW 12,000 FEET WITH NO 
SIGNIFICANT WEATHER AND/OR OBSTRUCTIONS TO VISIBILITY.

MAZALL-070000-
EASTERN MASSACHUSETTS
  
CITY           SKY/WX    TMP DP  RH WIND       PRES   REMARKS
BOSTON         CLOUDY    49  45  86 E7        30.42R                  
BEVERLY        NOT AVBL                                               
LAWRENCE       CLOUDY    52  44  74 E6        30.42S                  
BEDFORD        LGT RAIN  54  42  64 SE8       30.38S                  
NORWOOD        CLOUDY    54  41  61 SE6       30.40S                  
MARSHFIELD       N/A     50  46  87 SE5       30.42R                  
PLYMOUTH       CLOUDY    52  45  77 SE5       30.41R                  
TAUNTON          N/A    N/A N/A N/A MISG      30.40S                  
NEW BEDFORD    CLOUDY    52  48  86 SE8       30.40S                  
$$

MAZALL-070000-
CAPE COD AND THE ISLANDS
  
CITY           SKY/WX    TMP DP  RH WIND       PRES   REMARKS
FALMOUTH       CLEAR     50  45  81 SE12      30.40S                  
HYANNIS        CLOUDY    50  48  93 E9        30.39F                  
CHATHAM        PTCLDY    52  48  86 E9        30.44R                  
PROVINCETOWN   CLOUDY    51  48  89 SE9       30.44R                  
NANTUCKET      PTCLDY    53  50  89 E10       30.42S                  
MARTHAS VNYRD  CLOUDY    53  49  86 SE14      30.41R                  
$$
 
MAZALL-070000-
CENTRAL AND WESTERN MASSACHUSETTS
  
CITY           SKY/WX    TMP DP  RH WIND       PRES   REMARKS
WORCESTER      CLOUDY    50  45  83 SE9       30.37R                  
FITCHBURG      CLOUDY    44  40  85 CALM      30.39S                  
ORANGE         CLOUDY    51  45  79 S5        30.36R                  
SPRINGFIELD    CLOUDY    44  43  99 NW6       30.31S                  
WESTFIELD      CLOUDY    42  40  92 NE3       30.33F                  
NORTH ADAMS    LGT RAIN  51  45  79 E13G21    30.28F                  
PITTSFIELD     LGT RAIN  49  45  86 SE18G26   30.27F                  
$$
 
RIZALL-070000-
RHODE ISLAND
  
CITY           SKY/WX    TMP DP  RH WIND       PRES   REMARKS
PROVIDENCE     LGT RAIN  50  47  89 SE7       30.39S                  
NEWPORT        LGT RAIN  50  47  89 SE8       30.38S                  
BLOCK ISLAND   CLOUDY    53  49  86 SE15      30.37F                  
SMITHFIELD     LGT RAIN  49  46  90 VRB6      30.39S                  
WESTERLY       LGT RAIN  54  50  86 E9G18     30.36F                  
$$
 
CTZALL-070000-
CONNECTICUT
  
CITY           SKY/WX    TMP DP  RH WIND       PRES   REMARKS
BRADLEY INTL   CLOUDY    45  43  93 N3        30.33F                  
HARTFORD       CLOUDY    56  48  74 SE7       30.32F                  
BRIDGEPORT     CLOUDY    53  49  86 E7        30.31S                  
DANBURY        LGT RAIN  54  49  83 SE3       30.30S                  
GROTON         CLOUDY    56  51  84 SE15      30.34F                  
NEW HAVEN      CLOUDY    55  50  83 SE7       30.32S                  
CHESTER        MOCLDY    54  52  94 SE6G14    30.34R                  
MERIDEN        CLOUDY    55  47  74 S7        30.32S                  
WILLIMANTIC    CLOUDY    52  50  93 VRB3      30.35F                  
OXFORD         CLOUDY    52  49  89 SE14G20   30.31S                  
$$

MEZ002-015-021-024-NHZ003-005-008-011-012-014-VTZ005-008-070000-
NORTHERN NEW ENGLAND
  
CITY           SKY/WX    TMP DP  RH WIND       PRES   REMARKS
PORTLAND ME    CLOUDY    48  45  89 SE12      30.46F                  
BANGOR ME      CLOUDY    44  38  79 SE3       30.52R                  
CONCORD NH     CLOUDY    48  45  89 E10       30.39F                  
MANCHESTER NH  CLOUDY    51  44  77 SE6       30.38S                  
NASHUA NH      LGT RAIN  44  44 100 CALM      30.40S                  
PORTSMOUTH NH  CLOUDY    49  46  89 SE9       30.42S                  
JAFFREY NH     LGT RAIN  47  42  83 CALM      30.36R                  
KEENE NH       LGT RAIN  50  45  83 SE8         N/A                   
BURLINGTON VT  CLOUDY    44  42  93 CALM      30.24F                  
MT. WASHINGTON LGTSLEET  27  27 100 S46G58      N/A  VSB 0   WCI   7  
$$

NYZ052-076-070000-
EASTERN NEW YORK
  
CITY           SKY/WX    TMP DP  RH WIND       PRES   REMARKS
ALBANY         LGT RAIN  54  47  77 SE12G20   30.24S                  
NEW YORK CITY  LGT RAIN  57  51  80 SE15G22   30.27S                  
$$
 
ANZALL-070000-
MARINE OBSERVATIONS
  
STATION/POSITION TIME  TEMP    WIND        PRES    VSBY  WAVE
                       AIR SEA DIR/SP/G                  HT/PER
                 (UTC) (F)     (DEG/KT/KT) (MB)    (MI)  (FT/S)
BOSTON BUOY      2250      50  130/ 12/ 14 1030.5R         3/ 6
BUZZARDS BAY     2200   52     130/ 18/ 19 1029.1R
NANTUCKET SOUND  2250   51 49  120/ 14/ 16 1029.8R         2/ 3
MASS BAY-STELLWA 2104   51 50  140/ 12/ 16 1029.5R  1 7/8  4/ 5
ISLE OF SHOALS   2200   50     120/ 18/ 20 1029.5R
S OF BLOCK IS    2256      54                N/A           6/ 6
$$

......................KEY.........................
  SKY/WX - SKY CONDITION/PRESENT WEATHER
  TMP    - TEMPERATURE IN FAHRENHEIT
  DWPT   - DEWPOINT IN FAHRENHEIT
  RH     - RELATIVE HUMIDITY IN PERCENT
  WIND   - DIRECTION AND SPEED IN MPH
  PRES   - MEAN SEA LEVEL PRESSURE IN INCHES OF HG
  WCI    - WIND CHILL INDEX
  VSB    - VISIBILITY IN MILES
  HX     - HEAT INDEX
  TC     - TEMPERATURE IN CELSIUS
  VRB    - VARIABLE WIND DIRECTION
  N/A    - NOT AVAILABLE
  
      

Other recent Regional Weather Roundups

Thu Dec 8, 2:10pm

Thu Dec 8, 1:10pm

Thu Dec 8, 12:10pm

Thu Dec 8, 11:10am

Thu Dec 8, 10:10am

Thu Dec 8, 9:10am

Thu Dec 8, 8:10am

Thu Dec 8, 7:10am

Thu Dec 8, 6:10am

Thu Dec 8, 5:10am

Thu Dec 8, 4:10am

Thu Dec 8, 3:10am

Thu Dec 8, 2:10am

Thu Dec 8, 1:10am

Thu Dec 8, 12:10am

Wed Dec 7, 11:10pm

Wed Dec 7, 10:10pm

Wed Dec 7, 9:10pm

Wed Dec 7, 8:10pm

Wed Dec 7, 7:10pm

Wed Dec 7, 6:10pm

Wed Dec 7, 5:10pm

Wed Dec 7, 4:10pm

Wed Dec 7, 3:10pm

Wed Dec 7, 2:10pm

Wed Dec 7, 1:10pm

Wed Dec 7, 12:10pm

Wed Dec 7, 11:10am

Wed Dec 7, 10:10am

Wed Dec 7, 9:10am

Wed Dec 7, 8:10am

Wed Dec 7, 7:10am

Wed Dec 7, 6:10am

Wed Dec 7, 5:10am

Wed Dec 7, 4:10am

Wed Dec 7, 3:10am

Wed Dec 7, 2:10am

Wed Dec 7, 1:10am

Wed Dec 7, 12:10am

Tue Dec 6, 11:10pm

Tue Dec 6, 10:10pm

Tue Dec 6, 9:10pm

Tue Dec 6, 8:10pm

Tue Dec 6, 7:10pm

Tue Dec 6, 5:10pm

Tue Dec 6, 4:10pm

Tue Dec 6, 3:10pm

Tue Dec 6, 2:10pm

Tue Dec 6, 1:10pm

Tue Dec 6, 12:10pm

Tue Dec 6, 11:10am

Tue Dec 6, 10:10am

Tue Dec 6, 9:10am

Tue Dec 6, 8:10am

Tue Dec 6, 7:10am

Tue Dec 6, 6:10am

Tue Dec 6, 5:10am

Tue Dec 6, 4:10am

Tue Dec 6, 3:10am

Tue Dec 6, 2:10am

Tue Dec 6, 1:10am

Tue Dec 6, 12:10am

Mon Dec 5, 11:10pm

Mon Dec 5, 10:10pm

Mon Dec 5, 9:10pm

Mon Dec 5, 8:10pm

Mon Dec 5, 7:10pm

Mon Dec 5, 6:10pm

Mon Dec 5, 5:10pm

Mon Dec 5, 4:10pm

Mon Dec 5, 3:10pm

Mon Dec 5, 2:10pm

Mon Dec 5, 1:10pm

Mon Dec 5, 12:10pm

Mon Dec 5, 11:10am

Mon Dec 5, 10:10am

Mon Dec 5, 9:10am

Mon Dec 5, 8:10am

Mon Dec 5, 7:10am

Mon Dec 5, 6:10am

Mon Dec 5, 5:10am

Mon Dec 5, 4:10am

Mon Dec 5, 3:10am

Mon Dec 5, 2:10am

Mon Dec 5, 1:10am

Mon Dec 5, 12:10am

Sun Dec 4, 11:10pm

Sun Dec 4, 10:10pm

Sun Dec 4, 9:10pm

Sun Dec 4, 8:10pm

Sun Dec 4, 7:10pm

Sun Dec 4, 6:10pm

Sun Dec 4, 5:10pm

Sun Dec 4, 4:10pm

Sun Dec 4, 3:10pm

Sun Dec 4, 2:10pm

Sun Dec 4, 1:10pm

Sun Dec 4, 12:10pm

Sun Dec 4, 11:10am

Sun Dec 4, 10:10am

Sun Dec 4, 9:10am

Sun Dec 4, 8:10am

Sun Dec 4, 7:10am

Sun Dec 4, 6:10am

Sun Dec 4, 5:10am

Sun Dec 4, 4:10am

Sun Dec 4, 3:10am

Sun Dec 4, 2:10am

Sun Dec 4, 1:10am

Sun Dec 4, 12:10am

Sat Dec 3, 11:10pm

Sat Dec 3, 10:10pm

Sat Dec 3, 9:10pm

Sat Dec 3, 8:10pm

Sat Dec 3, 7:10pm

Sat Dec 3, 6:10pm

Sat Dec 3, 5:10pm

Sat Dec 3, 4:10pm

Sat Dec 3, 3:10pm

Sat Dec 3, 2:10pm

Sat Dec 3, 1:10pm

Sat Dec 3, 12:10pm

Sat Dec 3, 11:10am

Sat Dec 3, 10:10am

Sat Dec 3, 9:10am

Sat Dec 3, 8:10am

Sat Dec 3, 7:10am

Sat Dec 3, 6:10am

Sat Dec 3, 5:10am

Sat Dec 3, 4:10am

Sat Dec 3, 3:10am

Sat Dec 3, 2:10am

Sat Dec 3, 1:10am

Sat Dec 3, 12:10am

Fri Dec 2, 11:10pm

Fri Dec 2, 10:10pm

Fri Dec 2, 9:10pm

Fri Dec 2, 8:10pm

Fri Dec 2, 7:10pm

Fri Dec 2, 6:10pm

Fri Dec 2, 5:10pm

Fri Dec 2, 4:10pm

Fri Dec 2, 3:10pm

Fri Dec 2, 2:10pm

Fri Dec 2, 1:10pm

Fri Dec 2, 12:10pm

Fri Dec 2, 11:10am

Fri Dec 2, 10:10am

Fri Dec 2, 9:10am

Fri Dec 2, 8:10am

Fri Dec 2, 7:10am

Fri Dec 2, 6:10am

Fri Dec 2, 5:10am

Fri Dec 2, 4:10am

Fri Dec 2, 3:10am

Fri Dec 2, 2:10am

Fri Dec 2, 1:10am

Fri Dec 2, 12:10am

Thu Dec 1, 11:10pm

Thu Dec 1, 10:10pm

Thu Dec 1, 9:10pm

Thu Dec 1, 8:10pm

Thu Dec 1, 7:10pm

Thu Dec 1, 6:10pm

Thu Dec 1, 5:10pm

Thu Dec 1, 4:10pm

Thu Dec 1, 3:10pm

Meta data:

ID: e62caa38-e5f0-4590-9ae5-2f3f4375410b
Link: https://api.weather.gov/products/e62caa38-e5f0-4590-9ae5-2f3f4375410b